Regional Weather Roundup
Issued by NWS Sterling, VA

Home | Current Version | Previous Version | Text Only | Print | Product List | Glossary Off
Versions: 1 2 3 4 5 6 7 8 9 10 11 12 13 14 15 16 17 18 19 20 21 22 23 24 25 26 27 28 29 30 31 32 33 34 35 36 37 38 39 40 41 42 43 44 45 46 47 48 49 50

000
ASUS41 KLWX 161011
RWRLWX

REGIONAL WEATHER ROUNDUP
NATIONAL WEATHER SERVICE BALTIMORE MD/WASHINGTON DC
500 AM EST MON JAN 16 2017

Note: "FAIR" indicates few or no clouds below 12,000 feet
with no significant weather and/or obstructions to visibility.
 TC=TEMPERATURE CELSIUS

 * =Non NWS site. Station does not report precipitation (e.g. rain,
    snow, etc.), thunder, or fog.

DCZ001-MDZ009-015-VAZ040>042-051-053>054-161100-
WASHINGTON METRO

CITY           SKY/WX    TMP DP  RH WIND       PRES   REMARKS
WASHINGTON NAT CLOUDY    39  27  62 E6        30.45S
DULLES         CLOUDY    39  26  59 CALM      30.43R
ANDREWS AFB    CLOUDY    36  26  69 NE3       30.43R
FT BELVOIR     CLOUDY    38  28  64 CALM      30.44R
QUANTICO       CLOUDY    40  32  73 CALM      30.45S
COLLEGE PARK*  CLOUDY    34  25  69 NE3       30.45R
LEESBURG*      CLOUDY    36  28  75 MISG      30.44R
GAITHERSBURG*  CLOUDY    34  19  55 E3        30.46S

$$

MDZ006>007-011-014-161100-
BALTIMORE METRO

CITY           SKY/WX    TMP DP  RH WIND       PRES   REMARKS
BWI AIRPORT    CLOUDY    34  26  72 E5        30.45S
MD SCIENCE CTR   N/A     35  20  54 MISG      30.46S
ANNAPOLIS      CLOUDY    37  26  64 E3        30.45S
FORT MEADE*    CLOUDY    32  27  80 E3        30.47S

$$

MDZ012-015-019>023-161100-
MARYLAND EASTERN SHORE

CITY           SKY/WX    TMP DP  RH WIND       PRES   REMARKS
OCEAN CITY     CLOUDY    34  32  92 N3        30.44S
SALISBURY      CLOUDY    34  28  79 NE5       30.44S
BAY BRIDGE AP* CLOUDY    34  25  69 MISG      30.46R
CAMBRIDGE*     CLOUDY    34  28  80 CALM      30.44S
EASTON*        CLOUDY    32  28  85 CALM      30.48S

$$

MDZ017>025-161100-
SOUTHERN MARYLAND

CITY           SKY/WX    TMP DP  RH WIND       PRES   REMARKS
PATUXENT RIVER CLOUDY    38  30  73 E6        30.44S
ST INIGOES     NOT AVBL
LEONARDTOWN*   CLOUDY    36  30  80 CALM      30.45S

$$

MDZ003>005-161100-
NORTH CENTRAL MARYLAND

CITY           SKY/WX    TMP DP  RH WIND       PRES   REMARKS
FREDERICK*     CLOUDY    32  27  80 N3        30.47S
HAGERSTOWN APT CLOUDY    29  22  75 NW3       30.40S
WESTMINSTER*     N/A     28  21  74 CALM      30.41S

$$

MDZ501>502-161100-
WESTERN MARYLAND

CITY           SKY/WX    TMP DP  RH WIND       PRES   REMARKS
OAKLAND*       FOG       32  32 100 SE7       30.26F VSB 1/4
CUMBERLAND*    CLOUDY    34  30  86 NE3       30.42S

$$

VAZ025>031-161100-
SHENANDOAH VALLEY

CITY           SKY/WX    TMP DP  RH WIND       PRES   REMARKS
WINCHESTER*    CLOUDY    34  27  75 CALM      30.39S
FRONT ROYAL*   NOT AVBL
LURAY*         CLOUDY    37  28  70 CALM      30.38S
NEW MARKET*    CLOUDY    37  23  56 CALM      30.37F
STAUNTON*      CLOUDY    36  33  90 CALM      30.38F
WAYNESBORO*    CLOUDY    38  37  96 E6        30.36S

$$

WVZ021-048>050-054>055-161100-
EASTERN WEST VIRGINIA PANHANDLE

CITY           SKY/WX    TMP DP  RH WIND       PRES   REMARKS
MARTINSBURG    CLOUDY    32  23  69 N6        30.40S
PETERSBURG*    CLOUDY    38  32  77 CALM      30.38S

$$

VAZ036>039-050-161100-
CENTRAL FOOTHILLS

CITY           SKY/WX    TMP DP  RH WIND       PRES   REMARKS
CHARLOTTESVILL LGT RAIN  39  35  86 CALM      30.40S
CULPEPER*      CLOUDY    39  30  71 CALM      30.43S
ORANGE*        RAIN      37  37 100 CALM      30.43S
GORDONSVILLE*  CLOUDY    37  37 100 CALM      30.40F FOG
WARRENTON*     CLOUDY    39  29  66 CALM      30.42S

$$

VAZ055>057-161100-
NORTH AND CENTRAL PIEDMONT

CITY           SKY/WX    TMP DP  RH WIND       PRES   REMARKS
FREDERICKSBRG* CLOUDY    39  34  83 S3        30.43S
STAFFORD*      CLOUDY    37  32  79 CALM      30.48R

$$

NCZ024-NYZ072-PAZ021-071-VAZ022-071-161100-
OTHER REGIONAL OBSERVATIONS

CITY           SKY/WX    TMP DP  RH WIND       PRES   REMARKS
NEW YORK CITY  CLEAR     30  16  56 N5        30.45F
PHILADELPHIA   CLEAR     27  19  72 N5        30.46F
PITTSBURGH     CLOUDY    25  22  88 CALM      30.33S
ROANOKE        CLOUDY    40  38  93 SE7       30.38S
RICHMOND       LGT RAIN  38  36  92 SE5       30.43S
RALEIGH        CLOUDY    46  35  65 E6        30.38F

$$

ANZ530>537-161100-
MARINE OBSERVATIONS

STATION/POSITION TIME  TEMP    WIND        PRES
                       AIR SEA DIR/SP/G
                 (UTC) (F)     (DEG/KT/KT) (MB)
THOMAS PT LIGHT  1000   36 38   90/  4/  5   N/A
BALT KEY BRIDGE  0948   33      40/  5/  5 1031.5R
COVE POINT       0948   37     110/  5/  6 1031.3F
LEWISETTA        0942   40 42  100/  6/  8 1030.4R
SOLOMONS ISLAND  0948   39 41   90/  6/  7   N/A
PINEY POINT      0948          110/  6/  7   N/A

$$




USA.gov is the U.S. government's official web portal to all federal, state and local government web resources and services.